| time (UTC) | temp F | wind direction | speed knots | gust knots | rain 1hr in | rain 24hr in | rain mn in | humidity % | barometer mb |
| 20260504033151 | 47 | 148 | 0.0 | 0.0 | 0.00 | 0.00 | 0.00 | 56 | 1013.5 |
| 20260504032647 | 47 | 140 | 0.0 | 0.0 | 0.00 | 0.00 | 0.00 | 58 | 1013.3 |
| 20260504032145 | 48 | 138 | 0.0 | 0.0 | 0.00 | 0.00 | 0.00 | 59 | 1013.4 |
| 20260504031642 | 48 | 141 | 0.0 | 0.0 | 0.00 | 0.00 | 0.00 | 57 | 1013.3 |
| 20260504031138 | 48 | 150 | 0.0 | 0.0 | 0.00 | 0.00 | 0.00 | 55 | 1013.3 |
| 20260504030635 | 46 | 147 | 0.0 | 0.0 | 0.00 | 0.00 | 0.00 | 57 | 1013.2 |
| 20260504030132 | 46 | 134 | 0.0 | 0.0 | 0.00 | 0.00 | 0.00 | 59 | 1013.2 |
| 20260504025628 | 46 | 134 | 0.0 | 0.0 | 0.00 | 0.00 | 0.00 | 60 | 1013.2 |
| 20260504025125 | 46 | 134 | 0.0 | 0.0 | 0.00 | 0.00 | 0.00 | 61 | 1013.3 |
| 20260504024622 | 46 | 133 | 0.0 | 0.0 | 0.00 | 0.00 | 0.00 | 60 | 1013.3 |
| 20260504024119 | 47 | 133 | 0.0 | 0.0 | 0.00 | 0.00 | 0.00 | 58 | 1013.2 |
| 20260504023616 | 47 | 134 | 0.0 | 0.0 | 0.00 | 0.00 | 0.00 | 57 | 1013.2 |
| 20260504023111 | 47 | 138 | 0.0 | 0.0 | 0.00 | 0.00 | 0.00 | 57 | 1013.4 |
| 20260504022608 | 48 | 138 | 0.0 | 0.0 | 0.00 | 0.00 | 0.00 | 57 | 1013.2 |
| 20260504022104 | 47 | 141 | 0.0 | 0.0 | 0.00 | 0.00 | 0.00 | 55 | 1013.3 |
| 20260504021602 | 47 | 127 | 0.0 | 0.0 | 0.00 | 0.00 | 0.00 | 55 | 1013.5 |
| 20260504021058 | 47 | 127 | 0.0 | 0.0 | 0.00 | 0.00 | 0.00 | 55 | 1013.6 |
| 20260504020555 | 47 | 127 | 0.0 | 0.0 | 0.00 | 0.00 | 0.00 | 55 | 1013.5 |
| 20260504020051 | 48 | 127 | 0.0 | 0.0 | 0.00 | 0.00 | 0.00 | 54 | 1013.4 |
| 20260504015548 | 48 | 127 | 0.0 | 0.0 | 0.00 | 0.00 | 0.00 | 53 | 1013.2 |
| 20260504015044 | 48 | 127 | 0.0 | 0.0 | 0.00 | 0.00 | 0.00 | 52 | 1013.3 |
| 20260504014540 | 48 | 127 | 0.0 | 0.0 | 0.00 | 0.00 | 0.00 | 51 | 1013.2 |
| 20260504014038 | 48 | 127 | 0.0 | 0.0 | 0.00 | 0.00 | 0.00 | 50 | 1013.1 |
| 20260504013535 | 48 | 127 | 0.0 | 0.0 | 0.00 | 0.00 | 0.00 | 49 | 1013.3 |
| 20260504013032 | 49 | 127 | 0.0 | 0.0 | 0.00 | 0.00 | 0.00 | 50 | 1013.1 |
| 20260504012530 | 49 | 127 | 0.0 | 0.0 | 0.00 | 0.00 | 0.00 | 51 | 1013.3 |
| 20260504012028 | 49 | 126 | 0.0 | 0.0 | 0.00 | 0.00 | 0.00 | 48 | 1013.1 |
| 20260504011524 | 50 | 127 | 0.0 | 0.0 | 0.00 | 0.00 | 0.00 | 48 | 1013.0 |
| 20260504011020 | 49 | 128 | 0.0 | 0.0 | 0.00 | 0.00 | 0.00 | 50 | 1013.0 |
| 20260504010516 | 50 | 128 | 0.0 | 0.0 | 0.00 | 0.00 | 0.00 | 52 | 1012.9 |
| 20260504010012 | 50 | 127 | 0.0 | 0.0 | 0.00 | 0.00 | 0.00 | 50 | 1012.4 |
| 20260504005509 | 49 | 124 | 0.0 | 0.0 | 0.00 | 0.00 | 0.00 | 50 | 1012.6 |
| 20260504005007 | 50 | 129 | 0.0 | 0.0 | 0.00 | 0.00 | 0.00 | 50 | 1012.7 |
| 20260504004504 | 50 | 129 | 0.0 | 0.0 | 0.00 | 0.00 | 0.00 | 49 | 1012.5 |
| 20260504004001 | 51 | 128 | 0.0 | 0.0 | 0.00 | 0.00 | 0.00 | 49 | 1012.5 |
| 20260504003457 | 51 | 128 | 0.0 | 0.0 | 0.00 | 0.00 | 0.00 | 47 | 1012.4 |
| 20260504002954 | 52 | 134 | 0.0 | 0.0 | 0.00 | 0.00 | 0.00 | 46 | 1012.3 |
| 20260504002451 | 53 | 138 | 0.0 | 0.0 | 0.00 | 0.00 | 0.00 | 43 | 1012.5 |
| 20260504001948 | 53 | 138 | 0.0 | 0.0 | 0.00 | 0.00 | 0.00 | 43 | 1012.3 |
| 20260504001446 | 53 | 138 | 0.0 | 0.0 | 0.00 | 0.00 | 0.00 | 43 | 1012.2 |
| 20260504000942 | 54 | 138 | 0.0 | 0.0 | 0.00 | 0.00 | 0.00 | 43 | 1012.3 |
| 20260504000439 | 54 | 138 | 0.0 | 0.0 | 0.00 | 0.00 | 0.00 | 41 | 1012.0 |
| 20260503235936 | 55 | 141 | 0.0 | 0.0 | 0.00 | 0.00 | 0.00 | 41 | 1012.0 |
| 20260503235434 | 55 | 149 | 0.0 | 0.0 | 0.00 | 0.00 | 0.00 | 39 | 1012.0 |
| 20260503234931 | 55 | 152 | 0.0 | 0.0 | 0.00 | 0.00 | 0.00 | 39 | 1011.8 |
| 20260503234429 | 56 | 121 | 0.0 | 0.0 | 0.00 | 0.00 | 0.00 | 38 | 1011.6 |
| 20260503233927 | 56 | 139 | 0.0 | 0.0 | 0.00 | 0.00 | 0.00 | 37 | 1011.9 |
| 20260503233423 | 56 | 165 | 0.0 | 0.9 | 0.00 | 0.00 | 0.00 | 36 | 1011.8 |
| 20260503232920 | 57 | 135 | 0.9 | 0.9 | 0.00 | 0.00 | 0.00 | 36 | 1011.7 |
| 20260503232417 | 57 | 161 | 0.9 | 0.9 | 0.00 | 0.00 | 0.00 | 36 | 1011.7 |
| 20260503231914 | 57 | 141 | 0.0 | 0.0 | 0.00 | 0.00 | 0.00 | 37 | 1011.6 |
| 20260503231412 | 57 | 144 | 0.0 | 0.0 | 0.00 | 0.00 | 0.00 | 36 | 1011.6 |
| 20260503230908 | 57 | 136 | 0.9 | 0.9 | 0.00 | 0.00 | 0.00 | 35 | 1011.4 |
| 20260503230404 | 57 | 142 | 0.9 | 0.9 | 0.00 | 0.00 | 0.00 | 35 | 1011.4 |
| 20260503225902 | 57 | 148 | 0.9 | 0.9 | 0.00 | 0.00 | 0.00 | 35 | 1011.3 |
| 20260503225358 | 57 | 154 | 0.0 | 0.9 | 0.00 | 0.00 | 0.00 | 35 | 1011.3 |
| 20260503224854 | 57 | 321 | 0.9 | 1.7 | 0.00 | 0.00 | 0.00 | 34 | 1011.4 |
| 20260503224351 | 57 | 149 | 0.9 | 0.9 | 0.00 | 0.00 | 0.00 | 33 | 1011.5 |
| 20260503223849 | 58 | 141 | 0.9 | 0.9 | 0.00 | 0.00 | 0.00 | 34 | 1011.2 |
| 20260503223347 | 58 | 138 | 0.0 | 0.9 | 0.00 | 0.00 | 0.00 | 33 | 1011.4 |
| 20260503222842 | 58 | 131 | 0.0 | 0.9 | 0.00 | 0.00 | 0.00 | 34 | 1011.2 |
| 20260503222341 | 58 | 137 | 0.0 | 0.0 | 0.00 | 0.00 | 0.00 | 33 | 1011.3 |
| 20260503221838 | 58 | 138 | 0.9 | 1.7 | 0.00 | 0.00 | 0.00 | 32 | 1011.3 |
| 20260503221337 | 58 | 186 | 0.9 | 0.9 | 0.00 | 0.00 | 0.00 | 32 | 1011.3 |
| 20260503220832 | 58 | 140 | 0.0 | 0.9 | 0.00 | 0.00 | 0.00 | 33 | 1011.3 |
| 20260503220330 | 57 | 104 | 0.9 | 0.9 | 0.00 | 0.00 | 0.00 | 33 | 1011.5 |
| 20260503215827 | 58 | 142 | 2.6 | 4.3 | 0.00 | 0.00 | 0.00 | 33 | 1011.4 |
| 20260503215324 | 58 | 146 | 0.9 | 0.9 | 0.00 | 0.00 | 0.00 | 32 | 1011.2 |
| 20260503214821 | 58 | 174 | 0.9 | 1.7 | 0.00 | 0.00 | 0.00 | 32 | 1011.3 |
| 20260503214318 | 58 | 181 | 0.9 | 0.9 | 0.00 | 0.00 | 0.00 | 33 | 1011.5 |
| 20260503213816 | 58 | 145 | 1.7 | 2.6 | 0.00 | 0.00 | 0.00 | 31 | 1011.3 |
| 20260503213314 | 57 | 136 | 0.0 | 0.9 | 0.00 | 0.00 | 0.00 | 33 | 1011.2 |
| 20260503212810 | 58 | 188 | 1.7 | 1.7 | 0.00 | 0.00 | 0.00 | 31 | 1011.2 |
| 20260503212308 | 58 | 182 | 0.9 | 0.9 | 0.00 | 0.00 | 0.00 | 31 | 1011.4 |
| 20260503211805 | 58 | 154 | 0.9 | 1.7 | 0.00 | 0.00 | 0.00 | 31 | 1011.3 |
| 20260503211302 | 58 | 118 | 1.7 | 2.6 | 0.00 | 0.00 | 0.00 | 30 | 1011.3 |
| 20260503210801 | 58 | 181 | 0.9 | 0.9 | 0.00 | 0.00 | 0.00 | 31 | 1011.3 |
| 20260503210300 | 58 | 139 | 0.9 | 1.7 | 0.00 | 0.00 | 0.00 | 32 | 1011.1 |
| 20260503205754 | 58 | 136 | 0.9 | 0.9 | 0.00 | 0.00 | 0.00 | 31 | 1011.1 |
| 20260503205251 | 58 | 210 | 0.9 | 1.7 | 0.00 | 0.00 | 0.00 | 32 | 1011.1 |
| 20260503204747 | 59 | 182 | 1.7 | 1.7 | 0.00 | 0.00 | 0.00 | 30 | 1011.0 |
| 20260503204245 | 59 | 192 | 1.7 | 1.7 | 0.00 | 0.00 | 0.00 | 30 | 1011.1 |
| 20260503203742 | 59 | 121 | 0.0 | 0.9 | 0.00 | 0.00 | 0.00 | 30 | 1011.4 |
| 20260503203240 | 59 | 47 | 1.7 | 1.7 | 0.00 | 0.00 | 0.00 | 32 | 1011.4 |
| 20260503202737 | 58 | 205 | 1.7 | 1.7 | 0.00 | 0.00 | 0.00 | 32 | 1011.4 |
| 20260503202234 | 59 | 178 | 0.9 | 1.7 | 0.00 | 0.00 | 0.00 | 32 | 1011.4 |
| 20260503201732 | 58 | 149 | 0.9 | 0.9 | 0.00 | 0.00 | 0.00 | 33 | 1011.3 |
| 20260503201230 | 57 | 135 | 0.9 | 1.7 | 0.00 | 0.00 | 0.00 | 34 | 1011.2 |
| 20260503200726 | 59 | 140 | 0.9 | 0.9 | 0.00 | 0.00 | 0.00 | 32 | 1011.4 |
| 20260503200223 | 57 | 139 | 0.9 | 0.9 | 0.00 | 0.00 | 0.00 | 34 | 1011.5 |
| 20260503195719 | 57 | 165 | 0.9 | 1.7 | 0.00 | 0.00 | 0.00 | 34 | 1011.4 |
| 20260503195216 | 58 | 281 | 0.9 | 2.6 | 0.00 | 0.00 | 0.00 | 34 | 1011.6 |
| 20260503194714 | 60 | 212 | 1.7 | 1.7 | 0.00 | 0.00 | 0.00 | 32 | 1011.5 |
| 20260503194209 | 60 | 184 | 0.9 | 1.7 | 0.00 | 0.00 | 0.00 | 32 | 1011.2 |
| 20260503193706 | 59 | 125 | 1.7 | 2.6 | 0.00 | 0.00 | 0.00 | 31 | 1011.5 |
| 20260503193202 | 59 | 165 | 0.9 | 1.7 | 0.00 | 0.00 | 0.00 | 32 | 1011.5 |
| 20260503192657 | 60 | 206 | 2.6 | 2.6 | 0.00 | 0.00 | 0.00 | 32 | 1011.9 |
| 20260503192153 | 59 | 91 | 0.9 | 1.7 | 0.00 | 0.00 | 0.00 | 32 | 1011.8 |
| 20260503191650 | 59 | 141 | 0.9 | 0.9 | 0.00 | 0.00 | 0.00 | 32 | 1011.6 |
| 20260503191147 | 58 | 191 | 1.7 | 1.7 | 0.00 | 0.00 | 0.00 | 33 | 1012.0 |
| 20260503190644 | 58 | 48 | 1.7 | 1.7 | 0.00 | 0.00 | 0.00 | 34 | 1011.9 |
| 20260503190141 | 58 | 158 | 1.7 | 1.7 | 0.00 | 0.00 | 0.00 | 33 | 1012.0 |
| 20260503185637 | 56 | 245 | 2.6 | 4.3 | 0.00 | 0.00 | 0.00 | 35 | 1012.1 |
| 20260503185132 | 57 | 140 | 0.9 | 1.7 | 0.00 | 0.00 | 0.00 | 35 | 1011.9 |
| 20260503184628 | 57 | 88 | 3.5 | 5.2 | 0.00 | 0.00 | 0.00 | 35 | 1011.7 |
| 20260503184125 | 56 | 144 | 0.9 | 1.7 | 0.00 | 0.00 | 0.00 | 36 | 1012.1 |
| 20260503183621 | 57 | 115 | 2.6 | 4.3 | 0.00 | 0.00 | 0.00 | 34 | 1011.9 |
| 20260503183118 | 57 | 159 | 1.7 | 2.6 | 0.00 | 0.00 | 0.00 | 36 | 1012.1 |
| 20260503182617 | 58 | 217 | 0.9 | 1.7 | 0.00 | 0.00 | 0.00 | 34 | 1012.0 |
| 20260503182115 | 56 | 186 | 0.9 | 0.9 | 0.00 | 0.00 | 0.00 | 39 | 1012.1 |
| 20260503181611 | 55 | 119 | 1.7 | 1.7 | 0.00 | 0.00 | 0.00 | 37 | 1011.9 |
| 20260503181108 | 56 | 136 | 0.9 | 1.7 | 0.00 | 0.00 | 0.00 | 38 | 1011.9 |
| 20260503180605 | 56 | 195 | 1.7 | 2.6 | 0.00 | 0.00 | 0.00 | 36 | 1012.0 |
| 20260503180103 | 55 | 253 | 2.6 | 4.3 | 0.00 | 0.00 | 0.00 | 36 | 1012.1 |
| 20260503175559 | 55 | 257 | 2.6 | 2.6 | 0.00 | 0.00 | 0.00 | 37 | 1012.3 |
| 20260503175057 | 56 | 194 | 2.6 | 4.3 | 0.00 | 0.00 | 0.00 | 36 | 1012.0 |
| 20260503174554 | 56 | 145 | 1.7 | 1.7 | 0.00 | 0.00 | 0.00 | 37 | 1012.3 |
| 20260503174050 | 55 | 138 | 0.0 | 0.0 | 0.00 | 0.00 | 0.00 | 39 | 1012.5 |
| 20260503173545 | 55 | 192 | 0.9 | 0.9 | 0.00 | 0.00 | 0.00 | 38 | 1012.3 |
| 20260503173042 | 55 | 242 | 2.6 | 4.3 | 0.00 | 0.00 | 0.00 | 38 | 1012.4 |
| 20260503172539 | 54 | 162 | 1.7 | 1.7 | 0.00 | 0.00 | 0.00 | 43 | 1012.6 |
| 20260503172036 | 52 | 154 | 0.0 | 0.9 | 0.00 | 0.00 | 0.00 | 45 | 1012.6 |
| 20260503171533 | 52 | 164 | 0.9 | 0.9 | 0.00 | 0.00 | 0.00 | 44 | 1012.7 |
| 20260503171030 | 52 | 156 | 0.9 | 0.9 | 0.00 | 0.00 | 0.00 | 44 | 1012.7 |
| 20260503170526 | 52 | 157 | 0.9 | 0.9 | 0.00 | 0.00 | 0.00 | 43 | 1012.7 |
| 20260503150919 | 47 | 239 | 4.3 | 6.1 | 0.00 | 0.00 | 0.00 | 49 | 1013.1 |
| 20260503150415 | 48 | 140 | 2.6 | 2.6 | 0.00 | 0.00 | 0.00 | 47 | 1013.3 |
| 20260503131308 | 47 | 157 | 1.7 | 1.7 | 0.00 | 0.00 | 0.00 | 58 | 1013.0 |
| 20260503130806 | 46 | 122 | 0.0 | 0.0 | 0.00 | 0.00 | 0.00 | 57 | 1013.2 |
| 20260503130303 | 46 | 217 | 0.9 | 1.7 | 0.00 | 0.00 | 0.00 | 57 | 1012.9 |
| 20260503110657 | 42 | 137 | 0.0 | 0.0 | 0.00 | 0.00 | 0.00 | 65 | 1012.2 |
| 20260503110154 | 42 | 133 | 0.0 | 0.0 | 0.00 | 0.00 | 0.00 | 65 | 1012.3 |
| 20260503100121 | 42 | 146 | 0.0 | 0.9 | 0.00 | 0.00 | 0.00 | 65 | 1011.7 |
| 20260503081510 | 43 | 150 | 0.9 | 0.9 | 0.00 | 0.00 | 0.00 | 59 | 1011.6 |
| 20260503081007 | 44 | 119 | 0.0 | 0.9 | 0.00 | 0.00 | 0.00 | 58 | 1011.8 |
| 20260503080503 | 44 | 93 | 0.9 | 0.9 | 0.00 | 0.00 | 0.00 | 58 | 1011.6 |
| 20260503072940 | 44 | 121 | 0.0 | 0.9 | 0.00 | 0.00 | 0.00 | 58 | 1011.5 |
| 20260503072437 | 44 | 131 | 0.0 | 0.0 | 0.00 | 0.00 | 0.00 | 58 | 1011.3 |
| 20260503071934 | 44 | 149 | 0.0 | 0.0 | 0.00 | 0.00 | 0.00 | 58 | 1011.5 |
| 20260503071431 | 44 | 173 | 0.9 | 0.9 | 0.00 | 0.00 | 0.00 | 56 | 1011.5 |
| 20260503070927 | 44 | 168 | 0.9 | 1.7 | 0.00 | 0.00 | 0.00 | 57 | 1011.4 |
| 20260503070424 | 44 | 140 | 0.0 | 0.9 | 0.00 | 0.00 | 0.00 | 58 | 1011.6 |
| 20260503054838 | 46 | 136 | 0.0 | 0.0 | 0.00 | 0.00 | 0.00 | 54 | 1011.7 |
| 20260503054334 | 46 | 122 | 0.0 | 0.0 | 0.00 | 0.00 | 0.00 | 51 | 1011.9 |
| 20260503053832 | 46 | 192 | 1.7 | 1.7 | 0.00 | 0.00 | 0.00 | 52 | 1011.9 |
| 20260503053330 | 46 | 151 | 0.0 | 0.9 | 0.00 | 0.00 | 0.00 | 52 | 1011.8 |
| 20260503052826 | 46 | 59 | 0.9 | 1.7 | 0.00 | 0.00 | 0.00 | 52 | 1012.0 |
| 20260503052323 | 47 | 135 | 0.0 | 0.0 | 0.00 | 0.00 | 0.00 | 51 | 1011.8 |
| 20260503051819 | 47 | 160 | 0.9 | 0.9 | 0.00 | 0.00 | 0.00 | 52 | 1011.9 |
| 20260503051315 | 47 | 139 | 0.0 | 0.0 | 0.00 | 0.00 | 0.00 | 52 | 1012.1 |
| 20260503050812 | 47 | 119 | 0.0 | 0.0 | 0.00 | 0.00 | 0.00 | 51 | 1012.1 |
| 20260503050309 | 47 | 143 | 0.0 | 0.0 | 0.00 | 0.00 | 0.00 | 53 | 1011.9 |
| 20260503045807 | 47 | 140 | 0.0 | 0.0 | 0.00 | 0.00 | 0.00 | 52 | 1011.9 |
| 20260503045305 | 47 | 119 | 0.0 | 0.9 | 0.00 | 0.00 | 0.00 | 52 | 1012.1 |
| 20260503044800 | 47 | 136 | 0.0 | 0.0 | 0.00 | 0.00 | 0.00 | 52 | 1012.0 |
| 20260503044257 | 47 | 136 | 0.0 | 0.0 | 0.00 | 0.00 | 0.00 | 50 | 1012.0 |
| 20260503043755 | 47 | 116 | 0.0 | 0.0 | 0.00 | 0.00 | 0.00 | 50 | 1012.3 |
| 20260503043252 | 47 | 45 | 0.0 | 0.9 | 0.00 | 0.00 | 0.00 | 50 | 1012.3 |
| 20260503042747 | 47 | 129 | 0.0 | 0.0 | 0.00 | 0.00 | 0.00 | 51 | 1012.4 |
| 20260503042244 | 48 | 128 | 0.0 | 0.0 | 0.00 | 0.00 | 0.00 | 50 | 1012.3 |
| 20260503041740 | 48 | 139 | 0.0 | 0.0 | 0.00 | 0.00 | 0.00 | 50 | 1012.2 |
| 20260503041238 | 48 | 175 | 0.9 | 0.9 | 0.00 | 0.00 | 0.00 | 50 | 1012.5 |
| 20260503040736 | 48 | 129 | 0.0 | 0.0 | 0.00 | 0.00 | 0.00 | 51 | 1012.3 |
| 20260503040233 | 48 | 145 | 0.0 | 0.0 | 0.00 | 0.00 | 0.00 | 50 | 1012.3 |
| 20260503035729 | 48 | 98 | 0.9 | 0.9 | 0.00 | 0.00 | 0.00 | 49 | 1012.2 |
| 20260503035227 | 48 | 120 | 0.0 | 0.0 | 0.00 | 0.00 | 0.00 | 50 | 1012.3 |
| 20260503034724 | 48 | 122 | 0.0 | 0.0 | 0.00 | 0.00 | 0.00 | 48 | 1012.0 |
| 20260503034221 | 48 | 151 | 0.9 | 0.9 | 0.00 | 0.00 | 0.00 | 49 | 1012.3 |
| 20260503033719 | 48 | 130 | 0.0 | 0.0 | 0.00 | 0.00 | 0.00 | 49 | 1012.1 |